User: anonymous   Login
Location: Fremont
(37.5480°N, 121.9880°W)
Time: 02:57:46
(UTC-07:00)
Language:

Cosmos 1844 Rocket - Orbit

View from above orbital plane
View from above orbital plane
View from above satellite
View from above satellite

Ground track
Ground track

The orbit data is extracted from the following two-line orbital elements,

1 17974U 87041B   15180.51345340 -.00000039  00000-0  41999-5 0  9998
2 17974 071.0082 343.9566 0012346 044.7582 337.6400 14.17168613454868
Epoch (UTC): 29 June 2015 12:19:22
Eccentricity: 0.0012346
inclination: 71.0082°
perigee height: 826 km
apogee height: 844 km
right ascension of ascending node: 343.9566°
argument of perigee: 44.7582°
revolutions per day: 14.17168613
mean anomaly at epoch: 337.6400°
orbit number at epoch: 45486

The dashed part of the orbit path shows where the satellite is in the earth's shadow,  

DLR